FW7777 Weather Reports


time (UTC)temp
C
wind
direction
speed
KPH
gust
KPH
rain 1hr
cm
rain 24hr
cm
rain mn
cm
humidity
%
barometer
mb
20260506132405 43 0.0 0.0 0.00 0.00 0.00 100 1006.3
20260506131905 45 0.0 0.0 0.00 0.00 0.00 100 1006.2
20260506131406 44 0.0 0.0 0.00 0.00 0.00 100 1006.3
20260506130906 46 0.0 0.0 0.00 0.00 0.00 100 1006.2
20260506130405 45 0.0 0.0 0.00 0.00 0.00 100 1006.4
20260506125905 46 0.0 0.0 0.00 0.00 0.00 100 1006.1
20260506125404 46 0.0 0.0 0.00 0.00 0.00 100 1006.2
20260506124903 45 0.0 0.0 0.00 0.00 0.00 100 1006.5
20260506124409 45 0.0 0.0 0.00 0.00 0.00 100 1006.4
20260506123404 42 0.0 0.0 0.00 0.00 0.00 100 1006.9
20260506122903 42 0.0 0.0 0.00 0.00 0.00 100 1006.8
20260506122404 45 0.0 0.0 0.00 0.00 0.00 100 1006.7
20260506121904 45 0.0 0.0 0.00 0.00 0.00 100 1006.8
20260506121403 43 0.0 0.0 0.00 0.00 0.00 100 1006.9
20260506120904 45 0.0 0.0 0.00 0.00 0.00 100 1006.8
20260506120405 45 0.0 0.0 0.00 0.00 0.00 100 1006.9
20260506115905 45 0.0 0.0 0.00 0.00 0.00 100 1007.0
20260506115405 43 0.0 0.0 0.00 0.00 0.00 100 1007.1
20260506114904 41 0.0 0.0 0.00 0.00 0.00 100 1007.6
20260506114409 43 0.0 0.0 0.00 0.00 0.00 100 1007.3
20260506113405 44 0.0 0.0 0.00 0.00 0.00 100 1007.4
20260506112910 43 0.0 0.0 0.00 0.00 0.00 100 1007.4
20260506111905 43 0.0 0.0 0.00 0.00 0.00 100 1007.6
20260506111410 43 0.0 0.0 0.00 0.00 0.00 100 1007.7
20260506110406 43 0.0 0.0 0.00 0.00 0.00 100 1007.6
20260506105905 42 0.0 0.0 0.00 0.00 0.00 100 1007.8
20260506105405 41 0.0 0.0 0.00 0.00 0.00 100 1008.0
20260506104905 39 0.0 0.0 0.00 0.00 0.00 100 1008.2
20260506104404 37 0.0 0.0 0.00 0.00 0.00 100 1008.4
20260506103905 36 0.0 0.0 0.00 0.00 0.00 100 1008.7
20260506103405 34 0.0 0.0 0.00 0.00 0.00 100 1008.6
20260506102904 32 0.0 0.0 0.00 0.00 0.00 100 1008.9
20260506102410 31 0.0 0.0 0.00 0.00 0.00 100 1009.2
20260506100907 28 0.0 0.0 0.00 0.00 0.00 100 1009.5
20260506100406 29 0.0 0.0 0.00 0.00 0.00 100 1009.6
20260506095905 28 0.0 0.0 0.00 0.00 0.00 100 1009.7
20260506095405 28 0.0 0.0 0.00 0.00 0.00 100 1009.8
20260506094907 27 0.0 0.0 0.00 0.00 0.00 100 1009.8
20260506094411 27 0.0 0.0 0.00 0.00 0.00 100 1009.8
20260506093410 27 0.0 0.0 0.00 0.00 0.00 100 1009.9
20260506091910 26 0.0 0.0 0.00 0.00 0.00 100 1010.2
20260506085904 27 0.0 0.0 0.00 0.00 0.00 100 1010.1
20260506085409 26 0.0 0.0 0.00 0.00 0.00 100 1010.2
20260506084405 26 0.0 0.0 0.00 0.00 0.00 100 1010.3
20260506083905 26 0.0 0.0 0.00 0.00 0.00 100 1010.3
20260506083410 26 0.0 0.0 0.00 0.00 0.00 100 1010.2
20260506082404 26 0.0 0.0 0.00 0.00 0.00 100 1010.1
20260506081904 26 0.0 0.0 0.00 0.00 0.00 100 1010.2
20260506081405 26 0.0 0.0 0.00 0.00 0.00 100 1010.3
20260506080909 26 0.0 0.0 0.00 0.00 0.00 100 1010.2
20260506073406 25 0.0 0.0 0.00 0.00 0.00 100 1010.3
20260506072904 25 0.0 0.0 0.00 0.00 0.00 100 1010.3
20260506072404 24 0.0 0.0 0.00 0.00 0.00 100 1010.4
20260506071905 24 0.0 0.0 0.00 0.00 0.00 100 1010.4
20260506071405 23 0.0 0.0 0.00 0.00 0.00 100 1010.4
20260506070905 23 0.0 0.0 0.00 0.00 0.00 100 1010.4
20260506070405 23 0.0 0.0 0.00 0.00 0.00 100 1010.4
20260506062405 21 0.0 0.0 0.00 0.00 0.00 100 1010.7
20260506061905 21 0.0 0.0 0.00 0.00 0.00 100 1010.8
20260506061405 21 0.0 0.0 0.00 0.00 0.00 100 1010.7
20260506060904 21 0.0 0.0 0.00 0.00 0.00 100 1010.8
20260506060405 20 0.0 0.0 0.00 0.00 0.00 100 1010.9
20260506051409 19 0.0 0.0 0.00 0.00 0.00 100 1010.7
20260506050406 18 0.0 0.0 0.00 0.00 0.00 100 1010.7
20260506043905 17 0.0 0.0 0.00 0.00 0.00 100 1010.7
20260506043405 17 0.0 0.0 0.00 0.00 0.00 100 1010.7
20260506042905 16 0.0 0.0 0.00 0.00 0.00 100 1010.6
20260506042405 16 0.0 0.0 0.00 0.00 0.00 100 1010.6
20260506041904 16 0.0 0.0 0.00 0.00 0.00 100 1010.7
20260506041408 16 0.0 0.0 0.00 0.00 0.00 100 1010.6
20260506035905 16 0.0 0.0 0.00 0.00 0.00 100 1010.4
20260506035405 15 0.0 0.0 0.00 0.00 0.00 100 1010.4
20260506034906 15 0.0 0.0 0.00 0.00 0.00 100 1010.5
20260506034406 15 0.0 0.0 0.00 0.00 0.00 100 1010.5
20260506033909 14 0.0 0.0 0.00 0.00 0.00 100 1010.5
20260506032909 13 0.0 0.0 0.00 0.00 0.00 100 1010.5
20260506031909 13 0.0 0.0 0.00 0.00 0.00 100 1010.6
20260506030405 15 0.0 0.0 0.00 0.00 0.00 100 1010.4
20260506025905 15 0.0 0.0 0.00 0.00 0.00 100 1010.1
20260506025409 15 0.0 0.0 0.00 0.00 0.00 100 1009.9
20260506024405 16 0.0 0.0 0.00 0.00 0.00 100 1009.8
20260506023905 15 0.0 0.0 0.00 0.00 0.00 100 1009.6
20260506023410 15 0.0 0.0 0.00 0.00 0.00 100 1009.6
20260506022905 15 0.0 0.0 0.00 0.00 0.00 100 1009.7
20260506022406 15 0.0 0.0 0.00 0.00 0.00 100 1009.6
20260506021905 15 0.0 0.0 0.00 0.00 0.00 100 1009.6
20260506021405 15 0.0 0.0 0.00 0.00 0.00 100 1009.5
20260506020904 15 0.0 0.0 0.00 0.00 0.00 100 1009.5
20260506020404 15 0.0 0.0 0.00 0.00 0.00 100 1009.5
20260506015904 15 0.0 0.0 0.00 0.00 0.00 100 1009.6
20260506015409 15 0.0 0.0 0.00 0.00 0.00 100 1009.5
20260506013907 16 0.0 0.0 0.00 0.00 0.00 100 1009.5
20260506013411 16 0.0 0.0 0.00 0.00 0.00 100 1009.5
20260506012408 15 0.0 0.0 0.00 0.00 0.00 100 1009.4
20260506011906 15 0.0 0.0 0.00 0.00 0.00 100 1009.5
20260506011404 15 0.0 0.0 0.00 0.00 0.00 100 1009.5
20260506010905 15 0.0 0.0 0.00 0.00 0.00 100 1009.5
20260506010405 15 0.0 0.0 0.00 0.00 0.00 100 1009.5
20260506005904 15 0.0 0.0 0.00 0.00 0.00 100 1009.5
20260506005409 15 0.0 0.0 0.00 0.00 0.00 100 1009.5
20260506004405 15 0.0 0.0 0.00 0.00 0.00 100 1009.5
20260506003905 16 0.0 0.0 0.00 0.00 0.00 100 1009.4
20260506003405 16 0.0 0.0 0.00 0.00 0.00 100 1009.4
20260506002904 16 0.0 0.0 0.00 0.00 0.00 100 1009.4
20260506002404 16 0.0 0.0 0.00 0.00 0.00 100 1009.3
20260506001904 16 0.0 0.0 0.00 0.00 0.00 100 1009.2
20260506001405 16 0.0 0.0 0.00 0.00 0.00 100 1009.3
20260506000904 16 0.0 0.0 0.00 0.00 0.00 100 1009.2
20260506000408 16 0.0 0.0 0.00 0.00 0.00 100 1009.3
20260505235409 16 0.0 0.0 0.00 0.00 0.00 100 1009.3
20260505234404 16 0.0 0.0 0.00 0.00 0.00 100 1009.4
20260505233904 16 0.0 0.0 0.00 0.00 0.00 100 1009.4
20260505233404 16 0.0 0.0 0.00 0.00 0.00 100 1009.3
20260505232909 16 0.0 0.0 0.00 0.00 0.00 100 1009.4
20260505231904 16 0.0 0.0 0.00 0.00 0.00 100 1009.3
20260505231405 16 0.0 0.0 0.00 0.00 0.00 100 1009.3
20260505230905 16 0.0 0.0 0.00 0.00 0.00 100 1009.4
20260505230410 16 0.0 0.0 0.00 0.00 0.00 100 1009.5
20260505225904 16 0.0 0.0 0.00 0.00 0.00 100 1009.4
20260505225408 16 0.0 0.0 0.00 0.00 0.00 100 1009.5
20260505224404 17 0.0 0.0 0.00 0.00 0.00 100 1009.6
20260505223910 17 0.0 0.0 0.00 0.00 0.00 100 1009.6
20260505221904 17 0.0 0.0 0.00 0.00 0.00 100 1009.7
20260505221404 17 0.0 0.0 0.00 0.00 0.00 100 1009.7
20260505220905 17 0.0 0.0 0.00 0.00 0.00 100 1009.8
20260505220405 17 0.0 0.0 0.00 0.00 0.00 100 1009.7
20260505215904 17 0.0 0.0 0.00 0.00 0.00 100 1009.8
20260505215405 17 0.0 0.0 0.00 0.00 0.00 100 1009.8
20260505214909 17 0.0 0.0 0.00 0.00 0.00 100 1009.7
20260505213904 17 0.0 0.0 0.00 0.00 0.00 100 1009.8
20260505213404 17 0.0 0.0 0.00 0.00 0.00 100 1009.8
20260505212904 17 0.0 0.0 0.00 0.00 0.00 100 1009.8
20260505212404 18 0.0 0.0 0.00 0.00 0.00 100 1009.9
20260505211905 18 0.0 0.0 0.00 0.00 0.00 100 1009.7
20260505211405 18 0.0 0.0 0.00 0.00 0.00 100 1009.8
20260505210905 18 0.0 0.0 0.00 0.00 0.00 100 1009.8
20260505210404 18 0.0 0.0 0.00 0.00 0.00 100 1009.9
20260505205911 18 0.0 0.0 0.00 0.00 0.00 100 1009.9
20260505204910 18 0.0 0.0 0.00 0.00 0.00 100 1009.8
20260505203404 18 0.0 0.0 0.00 0.00 0.00 100 1009.8
20260505202910 18 0.0 0.0 0.00 0.00 0.00 100 1009.9
20260505201909 18 0.0 0.0 0.00 0.00 0.00 100 1009.9
20260505195905 20 0.0 0.0 0.00 0.00 0.00 100 1009.9
20260505195405 20 0.0 0.0 0.00 0.00 0.00 100 1009.9
20260505194910 20 0.0 0.0 0.00 0.00 0.00 100 1009.9
20260505193905 20 0.0 0.0 0.00 0.00 0.00 100 1009.8
20260505193409 20 0.0 0.0 0.00 0.00 0.00 100 1009.8
20260505192404 20 0.0 0.0 0.00 0.00 0.00 100 1009.7
20260505191905 20 0.0 0.0 0.00 0.00 0.00 100 1009.7
20260505191404 20 0.0 0.0 0.00 0.00 0.00 100 1009.7
20260505190905 20 0.0 0.0 0.00 0.00 0.00 100 1009.6
20260505190405 20 0.0 0.0 0.00 0.00 0.00 100 1009.6
20260505185905 20 0.0 0.0 0.00 0.00 0.00 100 1009.6
20260505185404 20 0.0 0.0 0.00 0.00 0.00 100 1009.6
20260505184904 20 0.0 0.0 0.00 0.00 0.00 100 1009.6
20260505184405 20 0.0 0.0 0.00 0.00 0.00 100 1009.6
20260505183904 20 0.0 0.0 0.00 0.00 0.00 100 1009.6
20260505183404 20 0.0 0.0 0.00 0.00 0.00 100 1009.5
20260505182904 20 0.0 0.0 0.00 0.00 0.00 100 1009.5
20260505182404 21 0.0 0.0 0.00 0.00 0.00 100 1009.5
20260505181909 21 0.0 0.0 0.00 0.00 0.00 100 1009.5
20260505180905 21 0.0 0.0 0.00 0.00 0.00 100 1009.4
20260505180404 21 0.0 0.0 0.00 0.00 0.00 100 1009.2
20260505175909 21 0.0 0.0 0.00 0.00 0.00 100 1009.1
20260505174905 22 0.0 0.0 0.00 0.00 0.00 100 1009.1
20260505174405 22 0.0 0.0 0.00 0.00 0.00 100 1009.0
20260505173910 23 0.0 0.0 0.00 0.00 0.00 100 1009.0
20260505173409 23 0.0 0.0 0.00 0.00 0.00 100 1009.0
20260505172404 24 0.0 0.0 0.00 0.00 0.00 100 1008.9
20260505171904 25 0.0 0.0 0.00 0.00 0.00 100 1008.9
20260505171406 25 0.0 0.0 0.00 0.00 0.00 100 1008.9
20260505170905 25 0.0 0.0 0.00 0.00 0.00 100 1008.7
20260505170404 26 0.0 0.0 0.00 0.00 0.00 100 1008.7
20260505165905 27 0.0 0.0 0.00 0.00 0.00 100 1008.6
20260505165404 27 0.0 0.0 0.00 0.00 0.00 100 1008.5
20260505164905 28 0.0 0.0 0.00 0.00 0.00 100 1008.4
20260505164404 29 0.0 0.0 0.00 0.00 0.00 100 1008.3
20260505163909 30 0.0 0.0 0.00 0.00 0.00 100 1008.2
20260505162904 36 0.0 0.0 0.00 0.00 0.00 100 1007.6
20260505162405 40 0.0 0.0 0.00 0.00 0.00 100 1007.4
20260505161905 41 0.0 0.0 0.00 0.00 0.00 100 1007.2
20260505161404 42 0.0 0.0 0.00 0.00 0.00 100 1007.2
20260505160904 42 0.0 0.0 0.00 0.00 0.00 100 1007.2
20260505160404 43 0.0 0.0 0.00 0.00 0.00 100 1007.0
20260505152904 46 0.0 0.0 0.00 0.00 0.00 100 1007.1
20260505152404 46 0.0 0.0 0.00 0.00 0.00 100 1007.1
20260505151909 45 0.0 0.0 0.00 0.00 0.00 100 1007.2
20260505150906 47 0.0 0.0 0.00 0.00 0.00 100 1007.0
20260505150404 46 0.0 0.0 0.00 0.00 0.00 100 1007.1